Flag for France Weather past 2 weeks in Marigot, Saint Martin, France

Now
77 °F

Passing clouds.


Feels Like: 79 °F
Forecast: 76 / 81 °F
Wind: 5 mph from East

Location: Juliana Airport - Saint Maarten

Current Time: Jan 30, 2015 at 4:50:57 AM

Latest Report: Jan 30, 2015 at 4:00 AM


Visibility: N/A

Pressure: 29.95 "Hg

Humidity: 79%

Dew point: 70 °F

Location of MarigotLocation

Historic Weather in Marigot — Graph

°F

Marigot temperature yesterday

Maximum temperature yesterday: 84 °F (at 1:00 PM)
Minimum temperature yesterday: 77 °F (at 12:00 AM)
Average temperature yesterday: 79 °F

Past Weeks' High & Low Weather Summary

 TemperatureHumidityPressure
High84 °F (Jan 17, 2:00 PM)94% (Jan 18, 7:00 AM)30.07 "Hg (Jan 18, 7:00 AM)
Low73 °F (Jan 18, 5:00 AM)58% (Jan 29, 1:00 PM)29.95 "Hg (Jan 16, 4:00 PM)
Average79 °F75%30.01 "Hg
* Reported Jan 15 4:00 AM — Jan 30 4:00 AM, Marigot, Weather by CustomWeather, © 2014

Note: Actual official high and low records may vary slightly from our data, if they occured in-between our weather recording intervals... More about our weather records

Advertising

Marigot weather history for previous 24 hours

 ConditionsComfort  
Time TempWeatherWind HumidityBarometerVisibility
4:00 AM
Jan 30
77 °FPassing clouds.5 mph79%29.95 "HgN/A
3:00 AM77 °FPassing clouds.6 mph74%29.95 "HgN/A
2:00 AM77 °FPassing clouds.6 mph74%29.98 "HgN/A
1:00 AM77 °FPassing clouds.5 mph79%29.98 "HgN/A
12:00 AM77 °FPassing clouds.6 mph79%29.98 "HgN/A
11:00 PM
Jan 29
77 °FPassing clouds.6 mph74%30.01 "HgN/A
10:00 PM77 °FPassing clouds.5 mph74%30.01 "HgN/A
9:00 PM77 °FPassing clouds.6 mph79%30.01 "HgN/A
8:00 PM77 °FPassing clouds.6 mph79%30.01 "HgN/A
7:00 PM77 °FPassing clouds.6 mph79%30.01 "HgN/A
6:00 PM79 °FPassing clouds.7 mph70%29.98 "HgN/A
5:00 PM81 °FPassing clouds.8 mph66%29.98 "HgN/A
4:00 PM82 °FPassing clouds.9 mph62%29.98 "HgN/A
3:00 PM82 °FPartly sunny.8 mph62%29.98 "HgN/A
2:00 PM82 °FBroken clouds.9 mph66%29.98 "HgN/A
1:00 PM84 °FScattered showers. Broken clouds.9 mph58%30.01 "HgN/A
12:00 PM82 °FScattered showers. Partly sunny.7 mph66%30.04 "HgN/A
11:00 AM82 °FPassing clouds.9 mph66%30.04 "HgN/A
10:00 AM82 °FScattered clouds.8 mph66%30.04 "HgN/A
9:00 AM81 °FScattered showers. Passing clouds.8 mph66%30.04 "HgN/A
8:00 AM79 °FPassing clouds.5 mph74%30.01 "HgN/A
7:00 AM77 °FPassing clouds.5 mph74%30.01 "HgN/A
6:00 AM77 °FPassing clouds.7 mph79%29.98 "HgN/A
5:00 AM77 °FPassing clouds.5 mph79%29.95 "HgN/A
4:00 AM77 °FPassing clouds.6 mph79%29.95 "HgN/A
Weather by CustomWeather, © 2014

See weather overviewHow to use our weather pages